This demonstration page uses our WeatherBlox Daily Observations layout. Learn more.

Hourly Observations for August 6, 2019

Temp ( °F °C ) Dew Point ( °F °C ) Humidity (%) Winds ( mph kmh ) Pressure ( in mb ) Visibility ( mi km ) Precip ( " mm )
12:15 am 00:15 Clear 70 20.9 67 19.2 90 90 N 3 6 29.94 1014 10 16.09344 0 0
12:35 am 00:35 Clear 69 20.4 67 19.6 95 95 N 6 9 29.94 1014 10 16.09344 0 0
12:55 am 00:55 Clear 69 20.3 68 19.8 97 97 N 6 9 29.94 1014 10 16.09344 0 0
1:15 am 01:15 Clear 68 20.2 67 19.7 97 97 N 5 7 29.94 1014 10 16.09344 0 0
1:35 am 01:35 Clear 69 20.5 68 20 97 97 N 3 6 29.94 1014 10 16.09344 0 0
1:55 am 01:55 Clear 69 20.3 68 19.8 97 97 Calm 29.94 1014 10 16.09344 0 0
2:15 am 02:15 Clear 71 21.6 68 20.1 91 91 NNE 3 6 29.94 1014 10 16.09344 0 0
2:35 am 02:35 Clear 69 20.8 68 20 95 95 NNW 3 6 29.94 1014 10 16.09344 0 0
2:55 am 02:55 Clear 68 20.1 67 19.6 97 97 N 5 7 29.94 1014 10 16.09344 0 0
3:15 am 03:15 Clear 68 20 67 19.6 98 98 Calm 29.94 1014 10 16.09344 0 0
3:35 am 03:35 Clear 67 19.6 67 19.5 99 99 N 3 6 29.97 1015 10 16.09344 0 0
3:55 am 03:55 Clear 67 19.5 67 19.3 99 99 NNE 5 7 29.97 1015 10 16.09344 0 0
4:15 am 04:15 Clear 67 19.3 67 19.3 100 100 NNE 5 7 29.97 1015 10 16.09344 0 0
4:35 am 04:35 Clear 67 19.5 67 19.3 99 99 Calm 29.97 1015 10 16.09344 0 0
4:55 am 04:55 Clear 66 19.1 66 19.1 100 100 NE 6 9 29.97 1015 10 16.09344 0 0
5:15 am 05:15 Clear 66 18.8 66 18.8 100 100 NE 5 7 29.97 1015 7 11.265408 0 0
5:35 am 05:35 Clear 66 18.8 66 18.8 100 100 NE 6 9 29.97 1015 7 11.265408 0 0
5:55 am 05:55 Clear 67 19.2 67 19.2 100 100 NE 6 9 29.97 1015 7 11.265408 0 0
6:15 am 06:15 Clear 66 19.1 66 19.1 100 100 NE 6 9 29.97 1015 7 11.265408 0 0
6:35 am 06:35 Clear with Mist and Fog 66 18.8 66 18.8 100 100 NE 3 6 29.97 1015 5 8.04672 0 0
6:55 am 06:55 Sunny with Mist and Fog 66 18.7 66 18.7 100 100 NE 7 11 29.97 1015 4 6.437376 0 0
7:15 am 07:15 Sunny with Mist and Fog 66 19 66 19 100 100 NE 6 9 29.97 1015 4 6.437376 0 0
7:35 am 07:35 Sunny 67 19.3 67 19.3 100 100 NE 6 9 29.97 1015 7 11.265408 0 0
7:55 am 07:55 Sunny 67 19.6 67 19.6 100 100 NE 6 9 29.97 1015 7 11.265408 0 0
8:15 am 08:15 Sunny 68 20.1 68 19.9 99 99 ENE 6 9 29.94 1014 10 16.09344 0 0
8:35 am 08:35 Sunny 69 20.6 68 20 96 96 E 7 11 29.97 1015 10 16.09344 0 0
8:55 am 08:55 Sunny 71 21.4 69 20.6 95 95 E 7 11 29.94 1014 10 16.09344 0 0
9:15 am 09:15 Sunny 72 22.1 69 20.8 92 92 E 5 7 29.97 1015 10 16.09344 0 0
9:35 am 09:35 Sunny 73 22.9 70 21.1 90 90 E 6 9 29.97 1015 10 16.09344 0 0
9:55 am 09:55 Sunny 74 23.3 70 21 87 87 E 6 9 29.97 1015 10 16.09344 0 0
10:15 am 10:15 Sunny 76 24.3 71 21.4 84 84 ESE 7 11 29.94 1014 10 16.09344 0 0
10:35 am 10:35 Sunny 76 24.7 70 21.3 81 81 ESE 7 11 29.94 1014 10 16.09344 0 0
10:55 am 10:55 Sunny 78 25.4 70 20.9 76 76 SE 8 13 29.94 1014 10 16.09344 0 0
11:15 am 11:15 Sunny 78 25.8 68 20.1 71 71 ESE 9 15 29.94 1014 10 16.09344 0 0
11:35 am 11:35 Sunny 80 26.4 69 20.4 70 70 ESE 8 13 29.94 1014 10 16.09344 0 0
11:55 am 11:55 Sunny 80 26.8 67 19.7 65 65 ESE 9 15 29.91 1013 10 16.09344 0 0
12:15 pm 12:15 Sunny 81 27.2 69 20.4 66 66 SE 8 13 29.88 1012 10 16.09344 0 0
12:35 pm 12:35 Sunny 82 27.6 67 19.6 62 62 ESE 10 17 29.88 1012 10 16.09344 0 0
12:55 pm 12:55 Sunny 82 27.8 68 20.2 63 63 SE 7 11 29.88 1012 10 16.09344 0 0
1:15 pm 13:15 Sunny 83 28.1 68 20.1 62 62 SE 7 11 29.88 1012 10 16.09344 0 0
1:35 pm 13:35 Sunny 83 28.1 69 20.3 63 63 SE 7 11 29.88 1012 10 16.09344 0 0
1:55 pm 13:55 Sunny 83 28.5 69 20.5 62 62 ESE 9 15 29.85 1011 10 16.09344 0 0
2:15 pm 14:15 Sunny 84 28.7 69 20.8 62 62 SE 8 13 29.85 1011 10 16.09344 0 0
2:35 pm 14:35 Sunny 84 29 71 21.5 64 64 SE 9 15 29.85 1011 10 16.09344 0 0
2:55 pm 14:55 Sunny 85 29.3 70 20.9 61 61 SE 6 9 29.85 1011 10 16.09344 0 0
3:15 pm 15:15 Sunny 85 29.3 70 21.1 61 61 ESE 7 11 29.85 1011 10 16.09344 0 0
3:35 pm 15:35 Sunny 86 29.8 71 21.6 61 61 S 6 9 29.85 1011 10 16.09344 0 0
3:55 pm 15:55 Sunny 86 29.9 71 21.7 61 61 SSE 6 9 29.83 1010 10 16.09344 0 0
4:15 pm 16:15 Sunny 86 30.1 70 21.2 59 59 SSE 7 11 29.83 1010 10 16.09344 0 0
4:35 pm 16:35 Sunny 86 30 70 20.9 58 58 SE 7 11 29.83 1010 10 16.09344 0 0
4:55 pm 16:55 Sunny 86 30.1 71 21.5 60 60 SE 9 15 29.83 1010 10 16.09344 0 0
5:15 pm 17:15 Sunny 87 30.5 72 22.1 61 61 E 9 15 29.8 1009 10 16.09344 0 0
5:35 pm 17:35 Sunny 86 30 73 22.5 64 64 SE 8 13 29.77 1008 10 16.09344 0 0
5:55 pm 17:55 Sunny 86 29.8 73 22.6 65 65 ESE 9 15 29.8 1009 10 16.09344 0 0
6:15 pm 18:15 Sunny 85 29.7 73 22.6 66 66 E 9 15 29.8 1009 10 16.09344 0 0
6:35 pm 18:35 Sunny 85 29.5 73 22.7 67 67 ESE 9 15 29.77 1008 10 16.09344 0 0
6:55 pm 18:55 Sunny 85 29.3 73 22.7 68 68 ESE 8 13 29.77 1008 10 16.09344 0 0
7:15 pm 19:15 Sunny 84 28.9 73 22.7 69 69 ESE 8 13 29.77 1008 10 16.09344 0 0
7:35 pm 19:35 Sunny 83 28.5 73 23 72 72 ESE 6 9 29.77 1008 10 16.09344 0 0
7:55 pm 19:55 Sunny 82 27.5 74 23.4 78 78 E 6 9 29.77 1008 10 16.09344 0 0
8:15 pm 20:15 Sunny 80 26.5 74 23.5 84 84 E 6 9 29.77 1008 10 16.09344 0 0
8:35 pm 20:35 Sunny 78 25.4 74 23.3 88 88 ESE 6 9 29.83 1010 10 16.09344 0 0
8:55 pm 20:55 Clear 76 24.5 73 23 91 91 ESE 6 9 29.8 1009 10 16.09344 0 0
9:15 pm 21:15 Clear 76 24.3 73 23 92 92 ESE 7 11 29.83 1010 10 16.09344 0 0
9:35 pm 21:35 Clear 75 23.9 73 22.8 94 94 ESE 7 11 29.83 1010 10 16.09344 0 0
9:55 pm 21:55 Clear 74 23.6 73 22.7 95 95 ESE 7 11 29.83 1010 10 16.09344 0 0
10:15 pm 22:15 Clear 75 23.7 73 22.6 94 94 ESE 7 11 29.83 1010 10 16.09344 0 0
10:35 pm 22:35 Clear 75 23.7 73 22.6 94 94 ESE 8 13 29.83 1010 10 16.09344 0 0
10:55 pm 22:55 Clear 74 23.5 73 22.5 94 94 SE 7 11 29.83 1010 10 16.09344 0 0
11:15 pm 23:15 Clear 74 23.5 73 22.5 94 94 SE 8 13 29.8 1009 10 16.09344 0 0
11:35 pm 23:35 Clear 74 23.5 73 22.5 94 94 SSE 9 15 29.8 1009 10 16.09344 0 0
11:55 pm 23:55 Clear 74 23.2 72 22.3 95 95 SSE 9 15 29.8 1009 10 16.09344 0 0

Powered by AerisWeather